Location: Beuerbach
(48.1459°N, 10.9174°E)
Time: 21:35:23
(UTC+00:00)

SL-16 R/B - Pass Details

Date: 14 August 2024
Orbit: 842 x 845 km, 71.0° (Epoch: 07 September)

Event Time Altitude Azimuth Distance (km) Brightness Sun altitude
Exits shadow 22:03:12 41° 89° (E) 1,211 2.8 -25.5°
Drops below altitude 10° 22:07:49 10° 39° (NE) 2,474 5.0 -25.8°
Sets 22:10:22 0° 33° (NNE) 3,414 5.9 -25.9°
